DELTA 1 DEB, 42079

Orbit data source: Space-Track

DELTA 1 DEB, 42079 is space debris in SSO originally from a launch on Sun, 15 Dec 1968 UTC launched from the Air Force Western Test Range (AFWTR). Debris objects in space refer to the collection of defunct objects orbiting the Earth. Examples of debris include non-operational satellites, rocket bodies, and fragments generated from explosions, collisions, or faulty payload assembly.

Loading next visibility...
Identifier
42079, 1968-114F
Orbit
SSO
Country
Flag of USUS
Related business
Manufacturer
Aerojet
Mission
Spacecraft
Bus & Motor
Unknown
Mass
Unknown
Launch date (UTC)
1968-12-15 (57 years ago)
Launch vehicle
Unknown
Launch site
Air Force Western Test Range (AFWTR)
Object type
Payload
Rocket body
Debris
Shape & HBR
Unknown shape, 0.1 m
Radar Cross Section
Small (<0.1 m²)

Expand to show TLE details & history
Last TLE update: 2 days ago

TLE from 2 days ago
0 DELTA 1 DEB
1 42079U 68114F   25300.41698111  .00000093  00000-0  10249-2 0  9993
2 42079 101.9974 274.0218 0314876 141.6560   9.7283 12.26192026533901
Epoch: 2025-10-27T10:00Z
TLE epoch observation values (Epoch: 2025-10-27T10:00:27.167Z)
Latitude
27.35908°
Longitude
-85.82926°
Altitude
1,322.366 km
Speed
7.309 km/s
True Right ascension
06h 41m 12s
True Declination
27° 13' 45"
Sunlit
Object was in daylight at epoch
Visualization orbit readout
Latitude
Unknown
Longitude
Unknown
Altitude
Unknown
Speed
Unknown
Apparent Right ascension
Unknown
Apparent Declination
Unknown
Sunlit
N/A
Visualization observer readout
Local Sidereal Time
07:27:37
Azimuth
Unknown
Elevation
Unknown
Doppler factor
Unknown
Orbital elements
Apogee altitude
1,813.33 km
Perigee altitude
1,313.218 km
Semi-major axis
7,941.411 km
Eccentricity
0.03149
Inclination
101.9974°
RAAN
274.0218°
Arg. of periapsis
141.656°
True anomaly
10.36255°
Mean anomaly
9.7283°
Eccentric anomaly
10.04291°
Mean motion
3.06688 °/min
Orbital period
117.38 mins
BSTAR
0.0010249
Loading maneuver chart data...
Computing Atmospheric mass density...
Loading historical data...
Loading historical data...
Loading historical data...
Loading historical data...
Loading historical data...
Loading historical data...
Loading historical data...

Documentation

Showing up to 5 results
|